weather.gov     
National Weather Service

Terminal Aerodrome Forecast
NWS Homepage
This page is being discontinued on March 12, 2014.
The same data is available at this site. Please update your bookmarks.
Thank you, and we apologize for the inconvenience.
Please send an email to SR-SRH.Webmaster@noaa.gov with any concerns.


Current Version
Previous Version:    01  02  03  04  05  06  07  08  09  10  11  12  13  14  15  16  17  18  19  20  21  22  23  
[Printable]
570
FTUS45 KSLC 260532
TAFPVU
TAF
KPVU 260532Z 2606/2706 14009KT P6SM SCT090 BKN200
     FM261400 32010G15KT P6SM SCT060 BKN080
     FM261800 32018G27KT P6SM SCT060 BKN080
     FM270300 32010KT P6SM VCSH SCT040 BKN060
      AMD LTD TO CLD VIS AND WIND=




570
FTUS45 KSLC 260532
TAFPVU
TAF
KPVU 260532Z 2606/2706 14009KT P6SM SCT090 BKN200
     FM261400 32010G15KT P6SM SCT060 BKN080
     FM261800 32018G27KT P6SM SCT060 BKN080
     FM270300 32010KT P6SM VCSH SCT040 BKN060
      AMD LTD TO CLD VIS AND WIND=


U.S. Dept. of Commerce
NOAA National Weather Service
1325 East West Highway
Silver Spring, MD 20910
E-mail: w-nws.webmaster@noaa.gov
Page last modified: May 16, 2007
NATIONAL WEATHER SERVICE: for Safety, for Work, for Fun - FOR LIFE